�������l�o���
Date,Time,MP-1(��Sv/h),MP-2(��Sv/h),MP-3(��Sv/h),MP-4(��Sv/h),MP-5(��Sv/h),MP-6(��Sv/h),MP-7(��Sv/h),MP-8(��Sv/h),����,����(m/s),���J
2016/11/18,00:00,1.112,1.900,1.274,2.139,1.493,0.579,1.057,0.975,�k��,3.8,��
2016/11/18,00:10,1.112,1.903,1.274,2.140,1.492,0.580,1.061,0.975,���k��,3.9,��
2016/11/18,00:20,1.110,1.902,1.276,2.142,1.494,0.579,1.058,0.979,�k��,3.0,��
2016/11/18,00:30,1.113,1.902,1.274,2.140,1.493,0.579,1.058,0.977,�k��,2.8,��
2016/11/18,00:40,1.113,1.901,1.273,2.140,1.491,0.579,1.057,0.979,�k��,3.2,��
2016/11/18,00:50,1.112,1.900,1.273,2.137,1.491,0.578,1.058,0.978,�k��,3.4,��
2016/11/18,01:00,1.110,1.900,1.274,2.140,1.492,0.579,1.057,0.978,�k��,3.6,��
2016/11/18,01:10,1.111,1.898,1.274,2.142,1.493,0.580,1.059,0.976,�k��,3.8,��
2016/11/18,01:20,1.113,1.902,1.273,2.139,1.492,0.577,1.058,0.977,���k��,4.2,��
2016/11/18,01:30,1.111,1.899,1.275,2.140,1.494,0.582,1.057,0.976,���k��,4.0,��
2016/11/18,01:40,1.111,1.901,1.273,2.139,1.492,0.581,1.058,0.976,���k��,3.9,��
2016/11/18,01:50,1.112,1.900,1.273,2.140,1.489,0.580,1.058,0.975,�k��,3.1,��
2016/11/18,02:00,1.110,1.900,1.273,2.137,1.490,0.581,1.058,0.978,��,3.5,��
2016/11/18,02:10,1.112,1.897,1.275,2.140,1.490,0.580,1.058,0.977,��,3.1,��
2016/11/18,02:20,1.112,1.900,1.273,2.142,1.491,0.579,1.057,0.977,��,3.5,��
2016/11/18,02:30,1.112,1.902,1.273,2.137,1.490,0.579,1.058,0.977,��,3.5,��
2016/11/18,02:40,1.113,1.901,1.274,2.141,1.491,0.581,1.058,0.976,���k��,4.1,��
2016/11/18,02:50,1.111,1.897,1.272,2.137,1.490,0.580,1.055,0.975,���k��,3.6,��
2016/11/18,03:00,1.111,1.899,1.273,2.138,1.491,0.579,1.058,0.977,��,3.9,��
2016/11/18,03:10,1.113,1.901,1.271,2.138,1.491,0.579,1.056,0.978,��,3.4,��
2016/11/18,03:20,1.110,1.900,1.274,2.136,1.489,0.579,1.056,0.977,���쐼,4.0,��
2016/11/18,03:30,1.110,1.898,1.273,2.140,1.487,0.578,1.056,0.976,���쐼,4.7,��
2016/11/18,03:40,1.110,1.899,1.272,2.138,1.492,0.580,1.058,0.975,���쐼,5.1,��
2016/11/18,03:50,1.112,1.900,1.274,2.136,1.491,0.577,1.056,0.975,���쐼,4.3,��
2016/11/18,04:00,1.112,1.900,1.271,2.140,1.486,0.577,1.057,0.975,��,4.2,��
2016/11/18,04:10,1.111,1.899,1.273,2.139,1.489,0.580,1.055,0.976,���쐼,4.6,��
2016/11/18,04:20,1.111,1.896,1.272,2.139,1.487,0.577,1.056,0.976,��,3.8,��
2016/11/18,04:30,1.111,1.902,1.271,2.138,1.487,0.578,1.056,0.977,��,3.1,��
2016/11/18,04:40,1.109,1.899,1.271,2.139,1.487,0.579,1.057,0.976,���k��,3.1,��
2016/11/18,04:50,1.112,1.899,1.270,2.136,1.490,0.579,1.054,0.975,��,2.6,��
2016/11/18,05:00,1.108,1.898,1.271,2.135,1.489,0.579,1.057,0.977,��,2.8,��
2016/11/18,05:10,1.109,1.898,1.270,2.137,1.489,0.578,1.055,0.974,���k��,3.2,��
2016/11/18,05:20,1.110,1.898,1.273,2.139,1.489,0.578,1.060,0.975,���k��,4.7,��
2016/11/18,05:30,1.112,1.900,1.270,2.139,1.490,0.578,1.056,0.975,��,3.8,��
2016/11/18,05:40,1.112,1.900,1.271,2.140,1.488,0.579,1.060,0.974,���k��,5.4,��
2016/11/18,05:50,1.109,1.896,1.272,2.138,1.489,0.578,1.057,0.975,���k��,4.9,��
2016/11/18,06:00,1.111,1.897,1.272,2.137,1.488,0.579,1.056,0.977,���k��,5.1,��
2016/11/18,06:10,1.109,1.896,1.271,2.140,1.485,0.577,1.055,0.978,���k��,5.0,��
2016/11/18,06:20,1.110,1.899,1.269,2.138,1.487,0.577,1.055,0.975,���k��,4.1,��
2016/11/18,06:30,1.110,1.899,1.266,2.140,1.488,0.577,1.059,0.975,���k��,4.1,��
2016/11/18,06:40,1.110,1.899,1.269,2.137,1.487,0.577,1.055,0.975,��,5.3,��
2016/11/18,06:50,1.110,1.898,1.268,2.137,1.488,0.578,1.057,0.975,�쐼,4.1,��
2016/11/18,07:00,1.111,1.898,1.270,2.138,1.488,0.577,1.055,0.978,�쐼,4.1,��
2016/11/18,07:10,1.112,1.900,1.271,2.136,1.487,0.578,1.058,0.976,�쐼,3.8,��
2016/11/18,07:20,1.110,1.900,1.270,2.137,1.488,0.578,1.057,0.976,��쐼,4.3,��
2016/11/18,07:30,1.111,1.900,1.271,2.138,1.489,0.579,1.059,0.978,��,4.4,��
2016/11/18,07:40,1.109,1.898,1.271,2.140,1.488,0.579,1.056,0.975,��쐼,4.1,��
2016/11/18,07:50,1.112,1.900,1.268,2.137,1.486,0.578,1.057,0.977,��쐼,3.5,��
2016/11/18,08:00,1.112,1.899,1.268,2.139,1.487,0.576,1.059,0.977,��,3.4,��
2016/11/18,08:10,1.113,1.898,1.272,2.139,1.488,0.578,1.057,0.978,��쓌,5.0,��
2016/11/18,08:20,1.114,1.900,1.273,2.140,1.492,0.580,1.060,0.978,��쓌,5.3,��
2016/11/18,08:30,1.115,1.900,1.274,2.144,1.491,0.580,1.060,0.978,��쓌,4.9,��
2016/11/18,08:40,1.117,1.898,1.274,2.143,1.491,0.578,1.059,0.977,��,4.0,��
2016/11/18,08:50,1.117,1.897,1.276,2.142,1.492,0.579,1.060,0.977,��,4.2,��
2016/11/18,09:00,1.115,1.901,1.277,2.144,1.496,0.579,1.063,0.976,��쓌,4.3,��
2016/11/18,09:10,1.114,1.902,1.276,2.144,1.496,0.581,1.062,0.979,��쓌,4.5,��
2016/11/18,09:20,1.116,1.902,1.278,2.143,1.495,0.579,1.059,0.979,��쓌,4.8,��
2016/11/18,09:30,1.118,1.902,1.276,2.146,1.493,0.581,1.061,0.979,��쓌,4.3,��
2016/11/18,09:40,1.115,1.903,1.277,2.145,1.493,0.579,1.060,0.979,��쓌,5.7,��
2016/11/18,09:50,1.118,1.904,1.276,2.146,1.493,0.581,1.062,0.979,��쓌,5.5,��
2016/11/18,10:00,1.117,1.904,1.276,2.146,1.494,0.581,1.060,0.979,��쓌,5.6,��
2016/11/18,10:10,1.118,1.903,1.278,2.144,1.496,0.582,1.060,0.980,��쓌,5.9,��
2016/11/18,10:20,1.120,1.901,1.276,2.145,1.497,0.580,1.059,0.978,��쓌,6.1,��
2016/11/18,10:30,1.115,1.902,1.272,2.148,1.497,0.582,1.061,0.979,��쓌,6.7,��
2016/11/18,10:40,1.117,1.900,1.273,2.146,1.496,0.580,1.058,0.979,��쓌,6.5,��
2016/11/18,10:50,1.120,1.902,1.279,2.147,1.498,0.583,1.059,0.977,��쓌,6.6,��
2016/11/18,11:00,1.120,1.901,1.278,2.147,1.497,0.581,1.059,0.977,��쓌,8.2,��
2016/11/18,11:10,1.117,1.904,1.279,2.146,1.496,0.581,1.059,0.980,��쓌,7.7,��
2016/11/18,11:20,1.117,1.902,1.281,2.148,1.496,0.582,1.058,0.980,��쓌,6.7,��
2016/11/18,11:30,1.118,1.906,1.281,2.149,1.498,0.582,1.058,0.981,��쓌,8.9,��
2016/11/18,11:40,1.118,1.905,1.279,2.149,1.495,0.582,1.060,0.980,��쓌,9.6,��
2016/11/18,11:50,1.117,1.905,1.276,2.150,1.497,0.584,1.062,0.982,��쓌,9.2,��
2016/11/18,12:00,1.118,1.906,1.279,2.148,1.495,0.584,1.060,0.981,��쓌,9.3,��
2016/11/18,12:10,1.120,1.906,1.277,2.147,1.497,0.584,1.061,0.980,��쓌,9.6,��
2016/11/18,12:20,1.117,1.902,1.282,2.149,1.501,0.585,1.061,0.978,��쓌,9.3,��
2016/11/18,12:30,1.116,1.906,1.280,2.150,1.499,0.585,1.061,0.981,��쓌,12.0,��
2016/11/18,12:40,1.115,1.903,1.281,2.153,1.501,0.586,1.061,0.979,��쓌,13.0,��
2016/11/18,12:50,1.116,1.905,1.279,2.149,1.501,0.584,1.062,0.978,��쓌,13.5,��
2016/11/18,13:00,1.118,1.902,1.275,2.151,1.498,0.586,1.062,0.978,��쓌,12.4,��
2016/11/18,13:10,1.118,1.902,1.277,2.154,1.501,0.586,1.062,0.975,��쓌,11.6,��
2016/11/18,13:20,1.119,1.898,1.276,2.149,1.500,0.586,1.062,0.978,��쓌,9.5,��
2016/11/18,13:30,1.118,1.906,1.276,2.152,1.503,0.585,1.063,0.977,��,10.6,��
2016/11/18,13:40,1.119,1.902,1.278,2.152,1.503,0.587,1.064,0.978,��쓌,12.7,��
2016/11/18,13:50,1.123,1.905,1.281,2.149,1.501,0.586,1.064,0.973,��쓌,10.8,��
2016/11/18,14:00,1.124,1.905,1.278,2.150,1.502,0.585,1.064,0.978,��쓌,12.0,��
2016/11/18,14:10,1.122,1.905,1.281,2.152,1.503,0.586,1.065,0.976,��쓌,12.2,��
2016/11/18,14:20,1.123,1.906,1.281,2.151,1.504,0.584,1.064,0.978,��쓌,10.5,��
2016/11/18,14:30,1.123,1.910,1.279,2.150,1.503,0.584,1.063,0.976,��쓌,11.3,��
2016/11/18,14:40,1.123,1.906,1.282,2.150,1.504,0.587,1.064,0.977,��쓌,10.5,��
2016/11/18,14:50,1.122,1.906,1.280,2.152,1.503,0.585,1.063,0.977,��쓌,11.4,��
2016/11/18,15:00,1.123,1.909,1.279,2.150,1.504,0.586,1.062,0.978,��,9.3,��
2016/11/18,15:10,1.124,1.910,1.279,2.150,1.503,0.586,1.063,0.979,��쓌,10.7,��
2016/11/18,15:20,1.123,1.907,1.282,2.152,1.502,0.588,1.064,0.981,��,8.6,��
2016/11/18,15:30,1.124,1.911,1.284,2.149,1.505,0.587,1.065,0.981,��,8.4,��
2016/11/18,15:40,1.122,1.911,1.283,2.154,1.502,0.588,1.064,0.981,��,8.5,��
2016/11/18,15:50,1.123,1.909,1.281,2.152,1.504,0.585,1.062,0.979,��,8.0,��
2016/11/18,16:00,1.125,1.912,1.280,2.149,1.502,0.587,1.065,0.982,��,9.1,��
2016/11/18,16:10,1.124,1.912,1.285,2.150,1.501,0.585,1.065,0.980,��,9.8,��
2016/11/18,16:20,1.124,1.907,1.283,2.152,1.503,0.586,1.065,0.981,��,9.7,��
2016/11/18,16:30,1.124,1.909,1.283,2.153,1.503,0.587,1.064,0.980,��,9.4,��
2016/11/18,16:40,1.124,1.912,1.285,2.150,1.505,0.586,1.068,0.979,��,9.7,��
2016/11/18,16:50,1.124,1.912,1.285,2.151,1.507,0.586,1.063,0.979,��,10.2,��
2016/11/18,17:00,1.122,1.910,1.282,2.151,1.504,0.588,1.064,0.979,��,9.6,��
2016/11/18,17:10,1.122,1.910,1.283,2.150,1.505,0.585,1.064,0.981,��,10.2,��
2016/11/18,17:20,1.122,1.909,1.283,2.151,1.507,0.585,1.063,0.980,��,9.9,��
2016/11/18,17:30,1.124,1.910,1.283,2.151,1.505,0.586,1.064,0.979,��,9.9,��
2016/11/18,17:40,1.122,1.911,1.283,2.150,1.505,0.584,1.065,0.980,��,10.7,��
2016/11/18,17:50,1.122,1.909,1.284,2.150,1.502,0.585,1.064,0.981,��,10.8,��
2016/11/18,18:00,1.122,1.907,1.282,2.154,1.506,0.585,1.063,0.980,��,10.7,��
2016/11/18,18:10,1.126,1.911,1.284,2.151,1.505,0.585,1.066,0.980,��,9.5,��
2016/11/18,18:20,1.124,1.908,1.285,2.152,1.505,0.586,1.065,0.981,��,9.1,��
2016/11/18,18:30,1.124,1.907,1.284,2.149,1.506,0.584,1.065,0.980,��,10.0,��
2016/11/18,18:40,1.124,1.910,1.283,2.151,1.504,0.586,1.066,0.979,��,9.7,��
2016/11/18,18:50,1.123,1.912,1.284,2.151,1.504,0.587,1.066,0.980,��,9.8,��
2016/11/18,19:00,1.123,1.910,1.285,2.154,1.502,0.585,1.066,0.982,��쐼,9.3,��
2016/11/18,19:10,1.121,1.911,1.282,2.150,1.507,0.587,1.064,0.980,��쐼,8.8,��
2016/11/18,19:20,1.123,1.911,1.281,2.151,1.506,0.588,1.066,0.978,��쐼,9.7,��
2016/11/18,19:30,1.122,1.908,1.283,2.152,1.503,0.586,1.067,0.981,��쐼,9.1,��
2016/11/18,19:40,1.124,1.912,1.282,2.154,1.502,0.586,1.064,0.980,��쐼,8.1,��
2016/11/18,19:50,1.123,1.909,1.284,2.149,1.502,0.588,1.065,0.980,��쐼,7.4,��
2016/11/18,20:00,1.123,1.906,1.282,2.151,1.506,0.586,1.065,0.981,��,7.4,��
2016/11/18,20:10,1.123,1.912,1.283,2.149,1.505,0.586,1.064,0.981,��쐼,6.4,��
2016/11/18,20:20,1.121,1.905,1.283,2.148,1.503,0.586,1.064,0.980,��쐼,6.5,��
2016/11/18,20:30,1.122,1.909,1.279,2.149,1.505,0.587,1.065,0.981,��,7.0,��
2016/11/18,20:40,1.123,1.908,1.282,2.149,1.507,0.587,1.065,0.981,��,8.1,��
2016/11/18,20:50,1.123,1.908,1.282,2.148,1.506,0.585,1.064,0.979,��쐼,8.8,��
2016/11/18,21:00,1.123,1.910,1.283,2.150,1.505,0.586,1.066,0.982,��,9.3,��
2016/11/18,21:10,1.123,1.911,1.285,2.155,1.506,0.586,1.065,0.981,��쐼,6.7,��
2016/11/18,21:20,1.120,1.909,1.285,2.152,1.506,0.586,1.065,0.981,��쐼,6.4,��
2016/11/18,21:30,1.124,1.908,1.282,2.151,1.506,0.585,1.066,0.981,��,5.5,��
2016/11/18,21:40,1.123,1.908,1.285,2.148,1.506,0.586,1.066,0.979,��,5.8,��
2016/11/18,21:50,1.122,1.908,1.285,2.146,1.504,0.585,1.066,0.979,��,4.5,��
2016/11/18,22:00,1.121,1.907,1.284,2.149,1.507,0.587,1.067,0.980,��,4.6,��
2016/11/18,22:10,1.122,1.908,1.283,2.150,1.505,0.586,1.064,0.980,��쐼,4.8,��
2016/11/18,22:20,1.124,1.910,1.283,2.151,1.501,0.584,1.066,0.978,��,4.9,��
2016/11/18,22:30,1.121,1.905,1.283,2.145,1.501,0.585,1.066,0.981,��,4.0,��
2016/11/18,22:40,1.123,1.908,1.284,2.152,1.501,0.584,1.066,0.980,��쐼,3.5,��
2016/11/18,22:50,1.122,1.910,1.282,2.145,1.502,0.585,1.064,0.980,��쐼,4.7,��
2016/11/18,23:00,1.121,1.906,1.282,2.149,1.504,0.585,1.066,0.980,��,5.1,��
2016/11/18,23:10,1.123,1.907,1.280,2.149,1.502,0.585,1.066,0.980,��쐼,4.6,��
2016/11/18,23:20,1.124,1.907,1.284,2.149,1.503,0.586,1.063,0.980,��,4.1,��
2016/11/18,23:30,1.124,1.906,1.283,2.149,1.502,0.585,1.064,0.980,��쐼,3.5,��
2016/11/18,23:40,1.125,1.909,1.282,2.151,1.506,0.586,1.066,0.981,��,3.8,��
2016/11/18,23:50,1.124,1.906,1.283,2.149,1.503,0.585,1.064,0.980,��,4.7,��
